STARLINK-38019, 69762

Orbit data source: Space-Track

STARLINK-38019, 69762 is a payload satellite owned by SpaceX/Seattle (US) in SSO that was launched on Thu, 02 Jul 2026 UTC via an FALCON 9 launch vehicle from the Air Force Western Test Range (AFWTR). Payload-class satellites include a variety of spacecraft equipped with specific instruments for various scientific and technological missions. These include communications satellites like Starlink; space stations such as the ISS; scientific satellites like the Hubble; Earth observation satellites from companies like Planet Labs, Umbra, and HawkEye 360; GPS; miniature CubeSats for education and research; and military/defense satellites.

Loading next visibility...
Identifier
69762, 2026-150Z
Orbit
SSO
Country
Flag of USUS
Related business
Manufacturer
SpaceX/Seattle
Mission
Operational spacecraft
Bus & Motor
STARLINK V2MO, Unknown motor
Mass
575 kg wet, ~530 kg dry
Launch date (UTC)
2026-07-02 (3 weeks ago)
Launch vehicle
FALCON 9
Launch site
Air Force Western Test Range (AFWTR)
Object type
Payload
Rocket body
Debris
Shape & HBR
Unknown shape, 17.7 m
Radar Cross Section
Large (>1 m²)

Expand to show TLE details & history
Last TLE update: 12 hours ago

TLE from 12 hours ago
0 STARLINK-38019
1 69762U 26150Z   26202.22761248  .00128085  00000-0  84520-3 0  9994
2 69762  97.2851  40.9312 0000936  79.7243 280.4128 15.75233810  4276
Epoch: 2026-07-21T05:27Z
TLE epoch observation values (Epoch: 2026-07-21T05:27:45.718Z)
Latitude
0.00001°
Longitude
19.99038°
Altitude
347.021 km
Speed
7.701 km/s
True Right ascension
02h 43m 43s
True Declination
0° 00' 00"
Sunlit
Object was in daylight at epoch
Visualization orbit readout
Latitude
Unknown
Longitude
Unknown
Altitude
Unknown
Speed
Unknown
Apparent Right ascension
Unknown
Apparent Declination
Unknown
Sunlit
N/A
Visualization observer readout
Local Sidereal Time
06:15:35
Azimuth
Unknown
Elevation
Unknown
Doppler factor
Unknown
Orbital elements
Apogee altitude
341.482 km
Perigee altitude
340.224 km
Semi-major axis
6,718.99 km
Eccentricity
0.00009
Inclination
97.2851°
RAAN
40.9312°
Arg. of periapsis
79.7243°
True anomaly
280.40225°
Mean anomaly
280.4128°
Eccentric anomaly
280.40753°
Mean motion
3.94083 °/min
Orbital period
91.35 mins
BSTAR
0.0008452
Loading maneuver chart data...
Computing Atmospheric mass density...
Loading historical data...
Loading historical data...
Loading historical data...
Loading historical data...
Loading historical data...
Loading historical data...
Loading historical data...

Documentation

Showing up to 5 results
|